Weather History for KAQW - November, 2012

Change the Weather History Date:

Monday, November 5, 2012

  Actual Average (WUND) Record (WUND)
Temperature  
Mean Temperature 30 °F -  
Max Temperature 36 °F - - (-1)
Min Temperature 21 °F - - (-1)
Degree Days  
Heating Degree Days 36    
Moisture  
Dew Point 19 °F    
Average Humidity 59    
Maximum Humidity 85    
Minimum Humidity 43    
Precipitation  
Precipitation 0.00 in - - ()
Sea Level Pressure  
Sea Level Pressure 30.06 in    
Wind  
Wind Speed 4 mph (WNW)    
Max Wind Speed 9 mph    
Max Gust Speed -    
Visibility 10 miles    
Events      
Averages and records for this station are not official NWS values.
T = Trace of Precipitation, MM = Missing Value Source: NWS Daily Summary

Daily Weather History Graph

Daily Weather History Graph

Search for Another Location

Airport or City:

Trip Planner

Search our weather history database for the weather conditions in past years. The results will help you decide how hot, cold, wet, or windy it might be!

Date:

Astronomy

Nov. 05, 2012 Rise Set
Actual Time 6:32 AM EST 4:39 PM EST
Civil Twilight 6:02 AM EST 5:09 PM EST
Nautical Twilight 5:28 AM EST 5:43 PM EST
Astronomical Twilight 4:55 AM EST 6:15 PM EST
Moon 10:14 PM EST (11/5) 11:50 AM EST (11/5)
Length of Visible Light 11h 06m
Length of Day
10h 07m
Waning Gibbous, 63% of the Moon is Illuminated
Nov 5
Waning Gibbous
Nov 6
Last Quarter
Nov 13
New
Nov 20
First Quarter
Nov 28
Full

Hourly Weather History & Observations

Time (EST) Temp. Windchill Dew Point Humidity Pressure Visibility Wind Dir Wind Speed Gust Speed Precip Events Conditions
12:22 AM 35.6 °F 29.9 °F 21.2 °F 56% 29.98 in 10.0 mi NNW 6.9 mph - N/A   Overcast
12:52 AM 35.1 °F 30.1 °F 21.0 °F 57% 30.00 in 10.0 mi Variable 5.8 mph - N/A   Overcast
1:48 AM 33.8 °F 29.6 °F 21.2 °F 60% 29.98 in 10.0 mi West 4.6 mph - N/A   Overcast
1:52 AM 34.0 °F 31.0 °F 21.9 °F 61% 30.00 in 10.0 mi WNW 3.5 mph - N/A   Overcast
2:21 AM 33.8 °F - 21.2 °F 60% 29.98 in 10.0 mi Calm Calm - N/A   Overcast
2:52 AM 34.0 °F 29.8 °F 21.9 °F 61% 30.00 in 10.0 mi West 4.6 mph - N/A   Overcast
3:52 AM 34.0 °F 31.0 °F 21.0 °F 59% 30.00 in 10.0 mi Variable 3.5 mph - N/A   Overcast
4:52 AM 34.0 °F - 21.0 °F 59% 30.00 in 10.0 mi Calm Calm - N/A   Overcast
5:52 AM 34.0 °F 29.8 °F 21.0 °F 59% 30.00 in 10.0 mi West 4.6 mph - N/A   Overcast
6:52 AM 34.0 °F 31.0 °F 21.0 °F 59% 30.02 in 10.0 mi Variable 3.5 mph - N/A   Overcast
7:52 AM 34.0 °F 28.8 °F 21.0 °F 59% 30.05 in 10.0 mi Variable 5.8 mph - N/A   Overcast
8:52 AM 35.1 °F 27.9 °F 19.9 °F 54% 30.05 in 10.0 mi West 9.2 mph - N/A   Overcast
9:52 AM 35.1 °F 31.0 °F 21.0 °F 57% 30.06 in 10.0 mi Variable 4.6 mph - N/A   Overcast
10:52 AM 35.1 °F 31.0 °F 19.9 °F 54% 30.06 in 10.0 mi Variable 4.6 mph - N/A   Overcast
11:52 AM 35.1 °F 29.3 °F 19.9 °F 54% 30.05 in 10.0 mi Variable 6.9 mph - N/A   Overcast
12:52 PM 36.0 °F 32.1 °F 19.9 °F 52% 30.04 in 10.0 mi Variable 4.6 mph - N/A   Overcast
1:52 PM 35.1 °F 31.0 °F 19.9 °F 54% 30.04 in 10.0 mi Variable 4.6 mph - N/A   Overcast
2:52 PM 36.0 °F 30.3 °F 17.1 °F 46% 30.06 in 10.0 mi Variable 6.9 mph - N/A   Overcast
3:52 PM 36.0 °F 32.1 °F 15.1 °F 43% 30.06 in 10.0 mi West 4.6 mph - N/A   Partly Cloudy
4:52 PM 33.1 °F - 12.9 °F 43% 30.07 in 10.0 mi Calm Calm - N/A   Clear
5:52 PM 28.9 °F - 15.1 °F 56% 30.10 in 10.0 mi Calm Calm - N/A   Clear
6:52 PM 28.9 °F - 16.0 °F 58% 30.12 in 10.0 mi Calm Calm - N/A   Partly Cloudy
7:52 PM 28.0 °F - 16.0 °F 61% 30.15 in 10.0 mi Calm Calm - N/A   Scattered Clouds
8:52 PM 26.1 °F - 16.0 °F 66% 30.16 in 10.0 mi Calm Calm - N/A   Clear
9:52 PM 24.1 °F - 17.1 °F 75% 30.17 in 10.0 mi Calm Calm - N/A   Mostly Cloudy
10:52 PM 23.0 °F - 16.0 °F 74% 30.16 in 10.0 mi Calm Calm - N/A   Clear
11:52 PM 21.9 °F - 18.0 °F 85% 30.18 in 10.0 mi Calm Calm - N/A   Mostly Cloudy